Regional Weather Roundup
Issued by NWS Charleston, SC

Current Version | Previous Version | Text Only | Print | Product List | Glossary Off
Versions: 1 2 3 4 5 6 7 8 9 10 11 12 13 14 15 16 17 18 19 20 21 22 23 24 25 26 27 28 29 30 31 32 33 34 35 36 37 38 39 40 41 42 43 44 45 46 47 48 49 50
000 ASUS42 KCHS 201025 RWRCHS REGIONAL WEATHER ROUNDUP NATIONAL WEATHER SERVICE CHARLESTON SC 600 AM EDT WED AUG 20 2014 NOTE: "FAIR" INDICATES FEW OR NO CLOUDS BELOW 12,000 FEET WITH NO SIGNIFICANT WEATHER AND/OR OBSTRUCTIONS TO VISIBILITY. NOT ALL STATIONS ARE QUALITY CONTROLLED BY THE NATIONAL WEATHER SERVICE. USE DATA WITH CAUTION...ESPECIALLY DEWPOINT OBSERVATIONS. SCZ027-030-031-034>040-042>050-201100- ...SOUTH CAROLINA... CITY SKY/WX TMP DP RH WIND PRES REMARKS N CHARLESTON PTCLDY 75 72 90 W6 29.92R WATERFRONT PRK N/A 75 N/A N/A W6 N/A FORT JOHNSON NOT AVBL MOUNT PLEASANT FAIR 75 73 94 W3 29.92R JOHNS ISLAND SUNNY 75 73 94 CALM 29.93R PINOPOLIS N/A 77 73 88 W8 29.82F MONCKS CORNER N/A 75 75 100 CALM 29.92R FOG SUMMERVILLE FAIR 73 73 100 CALM 29.93R BEAUFORT MCAS CLEAR 75 72 90 NW6 29.93R BEAUFORT ARPT FAIR 73 73 100 W7 29.93S HILTON HEAD IS NOT AVBL GEORGETOWN NOT AVBL WALTERBORO SUNNY 73 N/A N/A W3 29.94R ORANGEBURG CLEAR 73 70 90 W3 29.92R BARNWELL FAIR 72 72 100 SW3 29.94R AIKEN FAIR 72 72 100 W3 29.98R MANNING FAIR 73 N/A N/A CALM 29.92R KINGSTREE NOT AVBL COLUMBIA CLEAR 73 70 90 CALM 29.92R SUMTER CLEAR 73 71 94 SW3 29.90R FLORENCE PTCLDY 74 72 93 CALM 29.91R MYRTLE BEACH CLEAR 75 72 88 W6 29.90R N MYRTLE BEACH CLEAR 75 73 93 NW3 29.90R $$ GAZ063-065-086>088-099>101-113>116-118-119-134-136>141-150-201100- ...GEORGIA... CITY SKY/WX TMP DP RH WIND PRES REMARKS SAVANNAH ARPT CLEAR 73 69 87 W5 29.95R HUNTER AAF CLEAR 73 70 91 SW7 29.94R FORT STEWART CLEAR 73 70 90 W6 29.95R STATESBORO NOT AVBL SYLVANIA SUNNY 73 73 100 CALM 29.96R CLAXTON FAIR N/A N/A N/A CALM 29.97R THOMSON CLEAR 74 74 100 CALM 30.00R AUGUSTA-BUSH CLEAR 71 70 96 CALM 29.93R AUGUSTA-DANIEL CLEAR 76 72 87 W5 29.94R SWAINSBORO FAIR 73 73 100 W3 29.98R VIDALIA N/A 72 70 94 SW5 29.99R ALMA CLEAR 71 69 93 CALM 29.99R WAYCROSS PTCLDY 76 74 96 SW5 30.00R JESUP N/A 73 72 94 CALM 29.99R BRUNSWICK NOT AVBL SAINT SIMONS CLEAR 76 73 91 W6 29.97R $$ SCZ027-028-034-036>038-045-046-048>050-GAZ119-141-201100- ...LAKE AND SUPPLEMENTAL COASTAL OBSERVATIONS... STATION/POSITION TIME TEMP WIND PRES WAVE SWELL AIR SEA DIR/SP/G HT/PER HT/PER/DIR (UTC) (F) (DEG/KT/KT) (MB) (FT/S) (FT/S/D) UPR LAKE MARION NOT AVBL WINYAH BAY 1000 76 280/ 4 1012.0S LAKE MURRAY 0900 75 280/ 4/ 6 1012.5R ACE BASIN NERRS 1000 74 260/ 2 1013.0S FORT PULASKI 1000 75 250/ 5/ 7 1014.5R SAPELO ISLAND 1000 76 270/ 4 1015.0S $$ ANZ835-935-AMZ111-154-330-350-352-354-374-450-454-472-201100- ...C-MAN AND BUOY OBSERVATIONS... STATION/POSITION TIME TEMP WIND PRES WAVE SWELL AIR SEA DIR/SP/G HT/PER HT/PER/DIR (UTC) (F) (DEG/KT/KT) (MB) (FT/S) (FT/S/D) FOLLY BEACH CMAN 1000 75 260/ 5/ 8 1013.7R BUOY 41004 1000 81 83 270/ 14/ 16 1012.3R 4/ 5 2/ 8 BUOY 41008 1000 82 85 280/ 14/ 16 1014.2R 2/ 4 5E ST. MARYS GA 1000 81 N/A 2/ 2 FRYING PAN BUOY NOT AVBL BUOY 41025 1000 78 320/ 8/ 10 1010.5R 2/ 6 2/180/ 6 CAPE LOOKOUT NC 1000 78 330/ 6/ 8 1011.7R BUOY 41002 0854 82 81 240/ 21/ 25 1014.2 6/ 7 2/11 BUOY 41010 1000 84 86 210/ 14/ 16 1016.3R 3/ 4 2/150/ 8 BUOY 41012 NOT AVBL ST AUGUSTINE FL 1000 77 230/ 4/ 5 1016.3R CAPERS NEARSHORE 0900 78 300/ 12/ 16 N/A FRIPP NEARSHORE NOT AVBL $$

USA.gov is the U.S. government's official web portal to all federal, state and local government web resources and services.